FW2728 Weather Reports


Display with metric or nautical units.
time (UTC)temp
F
wind
direction
speed
MPH
gust
MPH
rain 1hr
in
rain 24hr
in
rain mn
in
humidity
%
barometer
mb
20260505052518 75 222 8.0 11.0 0.00 0.00 0.00 71 1006.0
20260505051518 75 222 5.0 10.0 0.00 0.00 0.00 70 1006.1
20260505050518 75 222 6.0 12.0 0.00 0.00 0.00 70 1006.2
20260505041016 75 223 5.0 9.0 0.00 0.00 0.00 70 1006.3
20260505040016 75 222 7.0 11.0 0.00 0.00 0.00 70 1006.3
20260505035016 75 223 5.0 11.0 0.00 0.00 0.00 70 1006.5
20260505034017 75 219 4.0 7.0 0.00 0.00 0.00 70 1006.3
20260505033017 75 221 5.0 9.0 0.00 0.00 0.00 70 1006.3
20260505032017 75 222 5.0 9.0 0.00 0.00 0.00 70 1006.3
20260505031017 75 222 5.0 8.0 0.00 0.00 0.00 69 1006.3
20260505030017 75 221 4.0 9.0 0.00 0.00 0.00 70 1006.5
20260505025017 75 221 3.0 5.0 0.00 0.00 0.00 70 1006.6
20260505024038 75 222 3.0 6.0 0.00 0.00 0.00 69 1006.3
20260505023018 76 220 3.0 5.0 0.00 0.00 0.00 69 1006.4
20260505022018 76 217 2.0 5.0 0.00 0.00 0.00 68 1006.2
20260505021018 76 222 3.0 7.0 0.00 0.00 0.00 67 1006.2
20260505020036 76 221 3.0 6.0 0.00 0.00 0.00 67 1006.1
20260505015056 76 221 3.0 6.0 0.00 0.00 0.00 67 1006.0
20260505014015 77 205 3.0 9.0 0.00 0.00 0.00 66 1006.2
20260505013016 77 206 2.0 7.0 0.00 0.00 0.00 66 1006.1
20260505012016 77 209 3.0 10.0 0.00 0.00 0.00 65 1006.1
20260505011016 77 213 4.0 8.0 0.00 0.00 0.00 65 1006.2
20260505010016 77 211 3.0 8.0 0.00 0.00 0.00 65 1006.2
20260505005016 77 224 3.0 9.0 0.00 0.00 0.00 64 1006.2
20260505004016 78 214 4.0 17.0 0.00 0.00 0.00 64 1006.2
20260505003037 78 210 2.0 8.0 0.00 0.00 0.00 64 1006.3
20260505002017 78 206 4.0 9.0 0.00 0.00 0.00 63 1006.4
20260505001017 79 209 4.0 18.0 0.00 0.00 0.00 62 1006.4
20260505000017 79 209 4.0 12.0 0.00 0.00 0.00 62 1006.5
20260504235017 79 205 5.0 9.0 0.00 0.00 0.00 61 1006.6
20260504234018 79 187 4.0 11.0 0.00 0.00 0.00 61 1006.7
20260504233018 79 202 5.0 11.0 0.00 0.00 0.00 60 1006.7
20260504232018 79 210 5.0 12.0 0.00 0.00 0.00 60 1006.8
20260504231018 80 213 6.0 11.0 0.00 0.00 0.00 60 1006.8
20260504230119 80 208 6.0 11.0 0.00 0.00 0.00 59 1006.9
20260504225016 81 211 5.0 12.0 0.00 0.00 0.00 58 1007.2
20260504224016 81 199 5.0 14.0 0.00 0.00 0.00 58 1007.1
20260504223016 81 214 6.0 15.0 0.00 0.00 0.00 57 1007.2
20260504222016 81 205 6.0 12.0 0.00 0.00 0.00 58 1007.2
20260504221016 81 212 5.0 12.0 0.00 0.00 0.00 57 1007.2
20260504220016 81 201 7.0 15.0 0.00 0.00 0.00 57 1007.4
20260504215017 82 208 5.0 13.0 0.00 0.00 0.00 56 1007.4
20260504214016 82 217 7.0 13.0 0.00 0.00 0.00 55 1007.5
20260504213017 82 202 6.0 14.0 0.00 0.00 0.00 55 1007.6
20260504212017 82 210 5.0 9.0 0.00 0.00 0.00 55 1007.9
20260504211017 83 209 4.0 11.0 0.00 0.00 0.00 54 1007.8
20260504210017 82 195 4.0 8.0 0.00 0.00 0.00 54 1008.0
20260504205018 82 193 5.0 11.0 0.00 0.00 0.00 55 1008.3
20260504204018 82 215 4.0 10.0 0.00 0.00 0.00 55 1008.5
20260504203018 82 211 6.0 14.0 0.00 0.00 0.00 55 1008.6
20260504202038 81 212 4.0 9.0 0.00 0.00 0.00 55 1008.9
20260504201015 81 220 7.0 13.0 0.00 0.00 0.00 56 1009.2
20260504200016 81 222 6.0 29.0 0.00 0.00 0.00 56 1009.4
20260504195036 80 223 8.0 38.0 0.00 0.00 0.00 56 1009.6
20260504194016 80 222 5.0 11.0 0.00 0.00 0.00 56 1009.8
20260504193017 80 223 8.0 13.0 0.00 0.00 0.00 56 1009.9
20260504192016 80 219 6.0 11.0 0.00 0.00 0.00 56 1010.0
20260504191036 80 221 6.0 10.0 0.00 0.00 0.00 56 1010.2
20260504190057 79 220 7.0 14.0 0.00 0.00 0.00 56 1010.4
20260504185017 79 217 5.0 11.0 0.00 0.00 0.00 56 1010.6
20260504184017 79 220 6.0 12.0 0.00 0.00 0.00 56 1010.7
20260504183017 79 220 4.0 9.0 0.00 0.00 0.00 56 1010.7
20260504182037 78 219 5.0 12.0 0.00 0.00 0.00 56 1010.9
20260504181021 78 222 9.0 16.0 0.00 0.00 0.00 57 1011.2
20260504180018 78 222 6.0 10.0 0.00 0.00 0.00 56 1011.1
20260504175018 78 222 5.0 15.0 0.00 0.00 0.00 56 1011.4
20260504174038 77 221 6.0 13.0 0.00 0.00 0.00 56 1011.4
20260504173018 77 223 7.0 14.0 0.00 0.00 0.00 57 1011.4
20260504172018 76 222 7.0 11.0 0.00 0.00 0.00 57 1011.6
20260504171015 76 222 7.0 14.0 0.00 0.00 0.00 57 1011.8
20260504151017 71 209 5.0 13.0 0.00 0.00 0.00 63 1013.0
20260504141015 68 212 4.0 9.0 0.00 0.00 0.00 68 1013.3
20260504081036 63 210 3.0 9.0 0.00 0.00 0.00 68 1014.2